Location: Poughquag
(41.6090°N, 73.6820°W)
Time: 14:30:13
(UTC-04:00)

Explorer 11/Cluster Stage 4 - Pass Details

Date: 04 June 2020
Orbit: 467 x 1259 km, 28.8° (Epoch: 05 July)

Event Time Altitude Azimuth Distance (km) Brightness Sun altitude
Rises 09:48:27 0° 256° (WSW) 3,752 9.7 47.1°
Reaches altitude 10° 09:52:03 10° 237° (WSW) 2,937 9.3 47.8°
Maximum altitude 09:56:33 17° 199° (SSW) 2,562 9.4 48.6°
Drops below altitude 10° 10:01:22 10° 162° (SSE) 3,172 10.1 49.5°
Sets 10:05:31 0° 145° (SE) 4,183 10.7 50.2°
